Regional Weather Roundup
Issued by NWS

Home | Current Version | Previous Version | Graphics & Text | Print | Product List | Glossary On
Versions: 1 2 3 4 5 6 7 8 9 10 11 12 13 14 15 16 17 18 19 20 21 22 23 24 25 26 27 28 29 30 31 32 33 34 35 36 37 38 39 40 41 42 43 44 45 46 47 48 49 50
992
ASUS45 KABQ 312110
RWRNM
NEW MEXICO REGIONAL WEATHER ROUNDUP
NATIONAL WEATHER SERVICE ALBUQUERQUE NM
300 PM MDT TUE MAY 31 2016

NOTE: "FAIR" MEANS FEW OR NO CLOUDS BELOW 12,000 FEET AGL WITH NO
       SIGNIFICANT WEATHER OR OBSTRUCTIONS TO VISION.

      THIS PRODUCT IS RELEASED AS TWO VERSIONS.  ONE VERSION NEAR
      THE TOP OF THE HOUR CONTAINING PRELIMINARY DATA FROM ALBUQUERQUE
      AND OTHER STATIONS.  A FINAL VERSION WITH ADDITIONAL DATA IS
      ISSUED ABOUT 10 MINUTES AFTER THE HOUR.

NMZ501-503-504-510>518-312200-
NORTHWEST PLATEAU/NORTHCENTRAL MOUNTAINS

CITY           SKY/WX    TMP DP  RH WIND       PRES   REMARKS
FARMINGTON     FAIR      82  13   7 W8G20     29.94F
LOS ALAMOS     PTSUNNY   67  27  22 NW12G29   30.11S
SANTA FE       PTSUNNY   71  33  24 E21G29    30.03F
TAOS           CLOUDY    55  36  47 N13G38    30.14R
ANGEL FIRE     FAIR      55  35  46 S3        30.22R

$$
NMZ402-403-502-505>509-312200-
WESTCENTRAL MOUNTAINS/SOUTHWEST MOUNTAINS

CITY           SKY/WX    TMP DP  RH WIND       PRES   REMARKS
GALLUP         FAIR      77  22  13 MISG      30.02F
GRANTS         FAIR      77  24  14 NE8G16    30.04S
SILVER CITY      N/A     81  21  11 S17       29.98F

$$
NMZ407-409-411-412-312200-
SOUTHERN DESERTS

CITY           SKY/WX    TMP DP  RH WIND       PRES   REMARKS
LORDSBURG      FAIR      84  25  11 SE15      29.89F
DEMING         FAIR      84  31  14 SW6       29.90F
LAS CRUCES     FAIR      83  40  21 SE13G18   29.92S
HOLLOMAN AFB   FAIR      85  41  21 VRB2G17   29.86F
ALAMOGORDO     FAIR      81  41  24 S7        29.89F
T OR C         FAIR      78  35  21 NW21      29.93F

$$
NMZ519>523-312200-
CENTRAL VALLEYS/CENTRAL HIGHLANDS

CITY           SKY/WX    TMP DP  RH WIND       PRES   REMARKS
ALBUQUERQUE    CLOUDY    74  32  21 SE17      29.97F
DOUBLE EAGLE   PTSUNNY   72  37  28 SE16      30.02S
MORIARTY ARPT  TSTM      67  40  37 NW6       30.06S
CLINES CORNERS PTSUNNY   68  36  30 E16       30.07F
BELEN          FAIR      74  37  25 E13       29.97S
SOCORRO        FAIR      83  32  15 SW9G18    29.92S

$$
NMZ524>526-539-540-312200-
SOUTHCENTRAL MOUNTAINS

CITY           SKY/WX    TMP DP  RH WIND       PRES   REMARKS
RUIDOSO          N/A     59  45  58 SE10      30.13F

$$
NMZ527>531-312200-
NORTHEAST HIGHLANDS/NORTHEAST PLAINS

CITY           SKY/WX    TMP DP  RH WIND       PRES   REMARKS
LAS VEGAS      TSTM      49  43  80 N10G21    30.16R
RATON          PTSUNNY   66  43  43 E9        30.08S
CLAYTON        FAIR      72  51  47 S9        30.03F

$$
NMZ532>537-312200-
EASTCENTRAL PLAINS

CITY           SKY/WX    TMP DP  RH WIND       PRES   REMARKS
TUCUMCARI      FAIR      80  50  34 E14G24    29.93F
CANNON AFB     FAIR      76  54  46 E14G23    29.95F
CLOVIS AIRPORT FAIR      75  54  46 SE12G20   29.96F

$$
NMZ028-029-538-312200-
SOUTHEAST PLAINS

CITY           SKY/WX    TMP DP  RH WIND       PRES   REMARKS
ROSWELL        PTSUNNY   79  44  28 N13       29.91S
ARTESIA        FAIR      82  48  30 NE9       29.86F
CARLSBAD       FAIR      85  46  25 SE5       29.82F
HOBBS          MOSUNNY   82  48  30 S3        29.88F


$$




USA.gov is the U.S. government's official web portal to all federal, state and local government web resources and services.